• MPC Preparation (Info)

  • MPEC 2016-O231: 2014 OR394

    The following Minor Planet Electronic Circular may be linked-to from your own Web pages, but must not otherwise be redistributed electronically.

    A form allowing access to any MPEC is at the bottom of this page.


    Read MPEC 2016-O230 Read MPEC 2016-O232


    M.P.E.C. 2016-O231                               Issued 2016 July 17, 18:25 UT
    
         The Minor Planet Electronic Circulars contain information on unusual
             minor planets and routine data on comets.  They are published
        on behalf of Division F of the International Astronomical Union by the
              Minor Planet Center, Smithsonian Astrophysical Observatory,
                              Cambridge, MA 02138, U.S.A.
    
                 Prepared using the Tamkin Foundation Computer Network
    
                                  MPC@CFA.HARVARD.EDU
                URL https://www.minorplanetcenter.net/    ISSN 1523-6714
    
                                      2014 OR394
    
    Observations:
         K14Od4R  C2010 09 16.49120 23 25 05.051-06 57 14.51         22.7 wLEO231F51
         K14Od4R  C2010 09 16.50263 23 25 04.985-06 57 14.88         22.5 wLEO231F51
         K14Od4R  C2010 09 16.52567 23 25 04.880-06 57 15.90         22.4 wLEO231F51
         K14Od4R* C2014 07 28.54986 23 59 01.235-01 04 50.69         22.7 wLEO231F51
         K14Od4R  C2014 07 28.56126 23 59 01.190-01 04 50.52         22.4 wLEO231F51
         K14Od4R  C2014 07 28.57264 23 59 01.160-01 04 50.76         22.9 wLEO231F51
         K14Od4R  C2014 08 03.52864 23 58 45.076-01 06 09.17         22.4 wLEO231F51
         K14Od4R  C2014 08 03.53998 23 58 45.037-01 06 09.22         22.6 wLEO231F51
         K14Od4R  C2014 08 03.55127 23 58 45.012-01 06 09.35         22.6 wLEO231F51
         K14Od4R  C2014 08 03.56258 23 58 44.975-01 06 09.41         22.6 wLEO231F51
         K14Od4R  C2014 08 20.48185 23 57 44.063-01 11 25.90         22.4 wLEO231F51
         K14Od4R  C2014 08 20.49403 23 57 44.006-01 11 26.41         22.6 wLEO231F51
         K14Od4R  C2014 08 20.50618 23 57 43.954-01 11 26.52         22.6 wLEO231F51
         K14Od4R  C2014 08 20.51837 23 57 43.902-01 11 26.76         22.4 wLEO231F51
         K14Od4R  C2014 09 17.34149 23 55 30.337-01 23 26.60         22.3 wLEO231F51
         K14Od4R  C2014 09 17.35335 23 55 30.303-01 23 26.46         22.2 wLEO231F51
         K14Od4R  C2014 09 17.36520 23 55 30.249-01 23 27.00         22.0 wLEO231F51
         K14Od4R  C2014 09 17.37705 23 55 30.160-01 23 27.33         22.2 wLEO231F51
         K14Od4R  C2015 07 23.55200 00 06 54.997+00 21 25.47         22.6 wLEO231F51
         K14Od4R  C2015 07 23.56308 00 06 54.972+00 21 25.47         22.9 wLEO231F51
         K14Od4R  C2015 07 23.57594 00 06 54.946+00 21 25.41         22.8 wLEO231F51
         K14Od4R  C2015 07 23.58705 00 06 54.926+00 21 25.03         22.7 wLEO231F51
         K14Od4R  C2015 07 25.50311 00 06 51.389+00 21 12.10         22.5 wLEO231F51
         K14Od4R  C2015 07 25.51654 00 06 51.363+00 21 12.11         22.8 wLEO231F51
         K14Od4R  C2015 07 25.52905 00 06 51.342+00 21 11.98         22.6 wLEO231F51
         K14Od4R  C2015 07 25.54164 00 06 51.312+00 21 12.01         22.7 wLEO231F51
    
    Observer details:
    F51 Pan-STARRS 1, Haleakala.  Observers B. Gibson, T. Goggia, N. Primak,
        A. Schultz, M. Willman.  Measurers K. Chambers, S. Chastel, Y.-T. Chen,
        L. Denneau, H. Flewelling, M. Holman, M. Huber, R. Jedicke, M. Lackner,
        E. Lilly, H.-W. Lin, E. Magnier, M. Micheli, M. Payne, P. Veres,
        R. Wainscoat, C. Waters, R. Weryk.  1.8-m Ritchey-Chretien + CCD.
    
    Orbital elements:
    2014 OR394
    Epoch 2016 July 31.0 TT = JDT 2457600.5                 MPC
    M 358.77113              (2000.0)            P               Q
    n   0.00060387     Peri.   14.36521     +0.96084804     -0.27698864
    a 138.6245502      Node     1.76137     +0.22662363     +0.77120630
    e   0.7571729      Incl.   13.07180     +0.15941381     +0.57316501
    P  1630            H    7.0           G   0.15           U   1
    Residuals in seconds of arc
    100916 F51  0.0   0.2+    140803 F51  0.1+  0.2+    150723 F51  0.0   0.1-
    100916 F51  0.1-  0.1+    140820 F51  0.0   0.1+    150723 F51  0.1-  0.0
    100916 F51  0.1+  0.3-    140820 F51  0.1-  0.2-    150723 F51  0.1-  0.0
    140728 F51  0.1+  0.2-    140820 F51  0.1-  0.0     150723 F51  0.1-  0.3-
    140728 F51  0.1-  0.1+    140820 F51  0.1-  0.0     150725 F51  0.1+  0.1-
    140728 F51  0.1-  0.0     140917 F51  0.3-  0.2-    150725 F51  0.1+  0.0
    140803 F51  0.0   0.1-    140917 F51  0.1+  0.3+    150725 F51  0.2+  0.0
    140803 F51  0.0   0.0     140917 F51  0.2+  0.1+    150725 F51  0.1+  0.1+
    140803 F51  0.1+  0.1+    140917 F51  0.2-  0.1+
    
    Ephemeris:
    2014 OR394               a,e,i = 138.62, 0.76, 13                q = 33.662
    Date    TT    R. A. (2000) Decl.     Delta      r     Elong.  Phase     V
    2016 06 17    00 14 30.9 +01 42 44  34.2118 34.0854    82.0     1.7    22.5
    ...
    2016 07 02    00 14 51.5 +01 46 28  33.9544 34.0793    96.2     1.7    22.5
    ...
    2016 07 10    00 14 52.8 +01 47 26  33.8188 34.0761   103.8     1.7    22.5
    ...
    2016 07 16    00 14 49.5 +01 47 41  33.7200 34.0737   109.6     1.6    22.5
    2016 07 17    00 14 48.5 +01 47 41  33.7038 34.0733   110.5     1.6    22.5
    2016 07 18    00 14 47.5 +01 47 41  33.6878 34.0729   111.5     1.6    22.5
    ...
    2016 07 24    00 14 39.3 +01 47 24  33.5937 34.0705   117.2     1.5    22.5
    ...
    2016 08 01    00 14 22.9 +01 46 28  33.4758 34.0674   124.9     1.4    22.5
    ...
    2016 08 16    00 13 36.9 +01 43 03  33.2848 34.0615   139.5     1.1    22.4
    
    A. U. Tomatic                (C) Copyright 2016 MPC           M.P.E.C. 2016-O231
    

    Read MPEC 2016-O230 Read MPEC 2016-O232


    MPEC number:

    Enter an MPEC number in one of the following forms:

    • 1997-B01 (the full form)
    • J97B01 (the packed version of the full form)
    • B01 (the abbreviated form)